[[{"header":{"parameterUnit":"m.s-1","parameterCategory":1,"la1":30.2991,"la2":30.254,"lo1":-89.0895,"lo2":-89.0444,"dy":0.0017,"dx":0.0017,"nx":28,"ny":28,"refTime":"2025-08-10T03:00:00:Z","depth":0,"parameterNumber":2,"parameterNumberName":"U-component_of_WINDS"},"data":[0,0,0,0,0,0,0,0,0,0,0,0,0,0,0,0,0,0,0,0,0,0,0,0,0,0,0,0,0,0,0,0,0,0,0,0,0,0,0,0,0,0,0,0,0,0,0,0,0,0,0,0,0,0,0,0,0,0,-2.3092,-2.3093,0,-2.3148,-2.3149,-2.315,-2.3121,-2.312,-2.3118,-2.3117,-2.3179,-2.3182,-2.3185,0,0,0,0,0,0,0,0,0,0,0,0,0,-2.2966,-2.2968,-2.3092,-2.3093,-2.3094,-2.3148,-2.3149,-2.315,-2.3121,-2.312,-2.3118,-2.3116,-2.3178,-2.3181,-2.3185,0,0,0,0,0,0,0,0,0,0,0,0,0,-2.3021,-2.2969,-2.3092,-2.3086,-2.3086,-2.3148,-2.3149,-2.315,-2.3122,-2.312,-2.3117,-2.3115,-2.3177,-2.3181,-2.3186,-2.3258,0,0,-2.3199,-2.3201,0,0,0,0,0,0,0,0,-2.3018,-2.3026,-2.3086,-2.3087,-2.3087,-2.3125,-2.3127,-2.3187,-2.3122,-2.3108,-2.3117,-2.3114,-2.3163,-2.3169,-2.3184,-2.3261,-2.3264,-2.32,-2.3203,-2.3205,-2.3206,0,0,0,0,0,0,0,-2.3014,-2.3024,-2.3115,-2.3087,-2.3088,-2.3082,-2.3088,-2.3138,-2.3148,-2.3109,-2.3107,-2.3114,-2.3163,-2.318,-2.3186,-2.3265,-2.32,-2.3204,-2.3207,-2.3208,-2.3407,-2.341,0,0,0,0,0,0,-2.301,-2.302,-2.3113,-2.3116,-2.3046,-2.3086,-2.3092,-2.3115,-2.3147,-2.315,-2.3116,-2.3113,-2.3173,-2.318,-2.3188,-2.3277,-2.3205,-2.3209,-2.3211,-2.3405,-2.3408,-2.3411,0,0,0,0,0,0,-2.3008,-2.3019,-2.3111,-2.3068,-2.3079,-2.3091,-2.3117,-2.3118,-2.3135,-2.3152,-2.3154,-2.3132,-2.3172,-2.3181,-2.3241,-2.3279,-2.3211,-2.3215,-2.3402,-2.3406,-2.3409,-2.3456,0,0,0,0,0,0,-2.3004,-2.3018,-2.3045,-2.3069,-2.3082,-2.3162,-2.3119,-2.312,-2.3142,-2.3138,-2.3167,-2.317,-2.3171,-2.3235,-2.3246,-2.3284,-2.3219,-2.3399,-2.3404,-2.3408,-2.3451,-2.3461,-2.3469,0,0,0,0,0,-2.3,-2.3056,-2.3046,-2.3057,-2.3115,-2.3164,-2.3172,-2.317,-2.3145,-2.3173,-2.3185,-2.3169,-2.3272,-2.3241,-2.3253,-2.3293,-2.3396,-2.3402,-2.3408,-2.3447,-2.3459,-2.3469,0,0,0,0,0,0,-2.3038,-2.3059,-2.3048,-2.3114,-2.3137,-2.3159,-2.3194,-2.3183,-2.3215,-2.321,-2.3208,-2.3215,-2.3278,-2.3291,-2.3256,-2.3367,-2.3331,-2.3339,-2.3356,-2.3368,-2.3377,-2.3373,-2.3222,0,0,0,0,0,-2.3053,-2.309,-2.3107,-2.3163,-2.3175,-2.3183,-2.3204,-2.3201,-2.3226,-2.3237,-2.3252,-2.3279,-2.3317,-2.3343,-2.3379,-2.3452,-2.346,-2.3486,-2.3495,-2.3502,-2.351,-2.3553,-2.3565,-2.343,-2.343,-2.3429,0,0,-2.3087,-2.3103,-2.3126,-2.3171,-2.3189,-2.3229,-2.3192,-2.3235,-2.3266,-2.3244,-2.3302,-2.3314,-2.3343,-2.3411,-2.3442,-2.3424,-2.3549,-2.3509,-2.3515,-2.3519,-2.356,-2.3573,-2.3584,-2.3434,-2.3433,-2.3432,0,0,-2.3168,-2.3183,-2.3233,-2.3251,-2.3278,-2.3283,-2.3295,-2.3319,-2.3326,-2.3383,-2.3368,-2.3405,-2.3471,-2.3493,-2.3513,-2.3604,-2.3592,-2.3616,-2.3664,-2.3705,-2.3716,-2.3725,-2.376,-2.3773,-2.3623,-2.3623,-2.3623,0,-2.3207,-2.3265,-2.326,-2.3305,-2.3326,-2.3306,-2.3358,-2.3376,-2.3415,-2.3431,-2.341,-2.3493,-2.3511,-2.3585,-2.3607,-2.3623,-2.3639,-2.3613,-2.3714,-2.3724,-2.3733,-2.3766,-2.3779,-2.3626,-2.3626,-2.3626,-2.3625,0,-2.3313,-2.3354,-2.339,-2.3427,-2.3452,-2.35,-2.3504,-2.353,-2.3525,-2.3532,-2.3593,-2.3613,-2.3655,-2.3671,-2.3667,-2.3745,-2.3734,-2.3714,-2.3678,-2.3749,-2.378,-2.3793,-2.363,-2.3629,-2.3628,-2.3628,0,0,-2.3422,-2.3454,-2.3468,-2.3485,-2.3513,-2.3546,-2.3593,-2.3632,-2.3656,-2.3683,-2.3725,-2.3782,-2.3764,-2.3786,-2.3784,-2.382,-2.3894,-2.3795,-2.3796,-2.3815,-2.3985,-2.4002,-2.4016,-2.3885,-2.3887,-2.3889,-2.3983,0,-2.3508,-2.359,-2.3587,-2.3664,-2.3703,-2.3685,-2.3727,-2.375,-2.3759,-2.3794,-2.3804,-2.3845,-2.3816,-2.383,-2.3864,-2.3877,-2.3928,-2.387,-2.3927,-2.3929,-2.3922,-2.4032,-2.405,-2.4138,-2.3995,-2.3997,-2.3998,0,-2.3619,-2.3649,-2.373,-2.3754,-2.377,-2.3808,-2.3844,-2.3877,-2.3904,-2.3908,-2.3933,-2.3926,-2.3977,-2.3937,-2.4009,-2.397,-2.3993,-2.4002,-2.4006,-2.4013,-2.397,-2.4046,-2.4166,-2.418,-2.4017,-2.4016,-2.4015,0,-2.3694,-2.3754,-2.3811,-2.3826,-2.3854,-2.3882,-2.3895,-2.3919,-2.3943,-2.3975,-2.3991,-2.4029,-2.4051,-2.4082,-2.4085,-2.4056,-2.4159,-2.4119,-2.4166,-2.4166,-2.419,-2.4189,-2.4319,-2.42,-2.42,-2.42,-2.42,0,-2.3792,-2.3843,-2.3845,-2.3881,-2.3938,-2.3934,-2.3992,-2.4003,-2.4025,-2.4064,-2.405,-2.4087,-2.4088,-2.4127,-2.413,-2.4191,-2.42,-2.4206,-2.4207,-2.4209,-2.4209,-2.4226,-2.4221,-2.4203,-2.4203,-2.4202,-2.4201,0,-2.3886,-2.3889,-2.395,-2.3972,-2.3978,-2.402,-2.404,-2.4075,-2.4081,-2.4131,-2.4142,-2.4153,-2.4198,-2.4204,-2.4257,-2.4259,-2.4333,-2.4326,-2.4324,-2.4324,-2.4371,-2.4368,-2.4519,-2.454,-2.4405,-2.4406,-2.4407,0,-2.395,-2.3988,-2.4014,-2.4038,-2.4053,-2.4092,-2.4116,-2.4114,-2.414,-2.4174,-2.4206,-2.4249,-2.4283,-2.4357,-2.4371,-2.4412,-2.4408,-2.4457,-2.4414,-2.4415,-2.4412,-2.4411,-2.4416,-2.4467,-2.4468,-2.447,-2.447,0,-2.4063,-2.4063,-2.4097,-2.4133,-2.4162,-2.419,-2.4217,-2.4238,-2.4239,-2.427,-2.4315,-2.4342,-2.4395,-2.444,-2.448,-2.4496,-2.4486,-2.4484,-2.4497,-2.4501,-2.45,-2.4504,-2.435,-2.4481,-2.448,-2.4479,-2.4479,-2.4478,-2.4146,-2.4181,-2.4204,-2.4244,-2.4263,-2.4288,-2.4322,-2.4333,-2.437,-2.4412,-2.4409,-2.4459,-2.4487,-2.454,-2.4559,-2.46,-2.4584,-2.4602,-2.4608,-2.4613,-2.4619,-2.449,-2.4607,-2.4606,-2.4606,-2.4606,-2.4606,0,-2.4262,-2.4275,-2.4311,-2.4349,-2.438,-2.4364,-2.4393,-2.4421,-2.4465,-2.449,-2.4524,-2.4578,-2.462,-2.4638,-2.468,-2.471,-2.4706,-2.4722,-2.4721,-2.4726,-2.463,-2.4615,-2.4724,-2.4724,-2.4724,-2.4724,-2.4724,-2.4724,-2.4326,-2.4384,-2.4386,-2.4454,-2.4468,-2.4516,-2.4535,-2.4559,-2.4579,-2.4638,-2.4673,-2.4683,-2.4707,-2.4751,-2.479,-2.4795,-2.4812,-2.4831,-2.4833,-2.4744,-2.4732,-2.4721,-2.4707,-2.4834,-2.4834,-2.4926,-2.4927,-2.4928]},{"header":{"parameterUnit":"m.s-1","parameterCategory":1,"la1":30.2991,"la2":30.254,"lo1":-89.0895,"lo2":-89.0444,"dy":0.0017,"dx":0.0017,"nx":28,"ny":28,"refTime":"2025-08-10T03:00:00:Z","depth":0,"parameterNumber":3,"parameterNumberName":"V-component_of_WINDS"},"data":[0,0,0,0,0,0,0,0,0,0,0,0,0,0,0,0,0,0,0,0,0,0,0,0,0,0,0,0,0,0,0,0,0,0,0,0,0,0,0,0,0,0,0,0,0,0,0,0,0,0,0,0,0,0,0,0,0,0,-0.0509,-0.0511,0,-0.0715,-0.0717,-0.072,-0.0837,-0.0838,-0.0838,-0.0838,-0.1055,-0.106,-0.1066,0,0,0,0,0,0,0,0,0,0,0,0,0,-0.0219,-0.0223,-0.0508,-0.0511,-0.0513,-0.0715,-0.0717,-0.072,-0.0837,-0.0838,-0.0838,-0.0839,-0.1053,-0.106,-0.1066,0,0,0,0,0,0,0,0,0,0,0,0,0,-0.0377,-0.0225,-0.0508,-0.0596,-0.0606,-0.0714,-0.0718,-0.0721,-0.0837,-0.0838,-0.0838,-0.0839,-0.1051,-0.1059,-0.1067,-0.1105,0,0,-0.1092,-0.1095,0,0,0,0,0,0,0,0,-0.0368,-0.0387,-0.058,-0.059,-0.0601,-0.0751,-0.0695,-0.085,-0.0837,-0.0749,-0.0838,-0.0839,-0.0954,-0.097,-0.1008,-0.1115,-0.1125,-0.1093,-0.1097,-0.1101,-0.1103,0,0,0,0,0,0,0,-0.0357,-0.0379,-0.059,-0.0583,-0.0596,-0.0626,-0.0649,-0.0725,-0.0846,-0.0757,-0.0766,-0.0789,-0.096,-0.0999,-0.1013,-0.1128,-0.1092,-0.11,-0.1105,-0.1108,-0.1277,-0.1277,0,0,0,0,0,0,-0.0331,-0.0369,-0.0584,-0.0596,-0.0483,-0.0631,-0.0657,-0.0702,-0.0845,-0.0868,-0.0788,-0.0793,-0.0985,-0.1004,-0.1021,-0.1077,-0.1101,-0.1108,-0.1113,-0.1278,-0.1277,-0.1277,0,0,0,0,0,0,-0.0324,-0.0349,-0.0575,-0.0485,-0.0516,-0.0635,-0.0685,-0.0706,-0.0746,-0.0869,-0.0891,-0.0806,-0.0986,-0.101,-0.1083,-0.1086,-0.1112,-0.112,-0.1278,-0.1278,-0.1277,-0.1186,0,0,0,0,0,0,-0.0315,-0.0346,-0.0361,-0.0485,-0.0521,-0.0632,-0.0686,-0.071,-0.0759,-0.0768,-0.0892,-0.0913,-0.0989,-0.107,-0.1091,-0.1097,-0.1126,-0.1279,-0.1278,-0.1277,-0.119,-0.1182,-0.1176,0,0,0,0,0,-0.0305,-0.0328,-0.0361,-0.0386,-0.0542,-0.0632,-0.0653,-0.0739,-0.0759,-0.0776,-0.0854,-0.0909,-0.1081,-0.1077,-0.1101,-0.111,-0.1279,-0.1278,-0.1277,-0.1192,-0.1184,-0.1177,0,0,0,0,0,0,-0.0205,-0.0346,-0.0384,-0.0448,-0.0527,-0.0652,-0.0676,-0.0727,-0.0803,-0.0809,-0.0913,-0.0939,-0.1003,-0.1063,-0.1056,-0.1154,-0.1186,-0.119,-0.1113,-0.1106,-0.1099,-0.1085,-0.1133,0,0,0,0,0,-0.0189,-0.0249,-0.037,-0.0415,-0.0453,-0.0557,-0.0599,-0.0658,-0.0744,-0.0779,-0.0863,-0.0946,-0.1019,-0.1065,-0.1139,-0.1197,-0.1227,-0.1215,-0.1208,-0.1203,-0.1206,-0.1242,-0.1239,-0.1274,-0.1274,-0.1274,0,0,-0.016,-0.0245,-0.0277,-0.0397,-0.0465,-0.0526,-0.0584,-0.0647,-0.0694,-0.0789,-0.0864,-0.0927,-0.1027,-0.1092,-0.1126,-0.1145,-0.1202,-0.1202,-0.1196,-0.1203,-0.1241,-0.1237,-0.1234,-0.1274,-0.1274,-0.1274,0,0,-0.0138,-0.0207,-0.0252,-0.0318,-0.0419,-0.0488,-0.0498,-0.0615,-0.066,-0.0735,-0.0808,-0.0865,-0.0989,-0.1057,-0.1108,-0.1107,-0.1161,-0.1128,-0.1096,-0.1129,-0.1127,-0.1125,-0.1127,-0.1126,-0.113,-0.113,-0.113,0,-0.0089,-0.0183,-0.027,-0.0328,-0.0379,-0.0464,-0.0512,-0.0572,-0.0692,-0.0726,-0.0745,-0.0901,-0.0974,-0.1057,-0.1056,-0.1094,-0.111,-0.1117,-0.112,-0.1119,-0.1118,-0.1121,-0.1121,-0.1126,-0.1126,-0.1127,-0.1127,0,-0.0119,-0.0183,-0.0207,-0.0319,-0.0373,-0.0425,-0.052,-0.0564,-0.0616,-0.0683,-0.0758,-0.0848,-0.0942,-0.0965,-0.1018,-0.1055,-0.1064,-0.1099,-0.1134,-0.1109,-0.1113,-0.1115,-0.1119,-0.1121,-0.1122,-0.1123,0,0,-0.0044,-0.02,-0.0208,-0.026,-0.0376,-0.0427,-0.0483,-0.0572,-0.0608,-0.0687,-0.0738,-0.0838,-0.0871,-0.0929,-0.0989,-0.1018,-0.1014,-0.1051,-0.1055,-0.1043,-0.1062,-0.1037,-0.1037,-0.1048,-0.1049,-0.1049,-0.1055,0,-0.0041,-0.0144,-0.0222,-0.0296,-0.0356,-0.0437,-0.0485,-0.0562,-0.0625,-0.0686,-0.0756,-0.0826,-0.0864,-0.0899,-0.0931,-0.1007,-0.102,-0.1008,-0.1099,-0.1101,-0.1075,-0.1039,-0.1013,-0.1014,-0.1057,-0.1057,-0.1057,0,-0.0053,-0.0126,-0.0205,-0.0314,-0.0342,-0.0384,-0.0472,-0.0528,-0.0617,-0.0661,-0.0722,-0.0784,-0.0848,-0.0873,-0.0962,-0.0952,-0.0994,-0.1036,-0.1039,-0.1053,-0.108,-0.1055,-0.1016,-0.1017,-0.1061,-0.106,-0.106,0,0.0008,-0.0111,-0.0174,-0.0215,-0.0343,-0.0371,-0.0426,-0.0514,-0.0562,-0.0639,-0.0672,-0.0754,-0.0801,-0.0864,-0.0947,-0.0957,-0.1028,-0.106,-0.1068,-0.1066,-0.1083,-0.1082,-0.1053,-0.1104,-0.1104,-0.1104,-0.1104,0,0.0017,-0.0028,-0.0149,-0.0188,-0.0241,-0.033,-0.0381,-0.0443,-0.052,-0.0574,-0.0647,-0.0696,-0.0801,-0.0863,-0.0928,-0.0993,-0.1013,-0.1051,-0.1069,-0.1046,-0.1042,-0.1078,-0.1081,-0.1104,-0.1104,-0.1104,-0.1104,0,0.0074,-0.0008,-0.0083,-0.0196,-0.0225,-0.026,-0.0358,-0.0399,-0.0464,-0.053,-0.0551,-0.0654,-0.073,-0.0818,-0.0923,-0.0967,-0.1028,-0.1052,-0.0997,-0.1008,-0.1012,-0.1011,-0.1008,-0.1013,-0.1057,-0.1056,-0.1056,0,0.0084,0.0047,-0.0069,-0.0109,-0.0161,-0.0224,-0.0273,-0.0361,-0.0409,-0.0511,-0.054,-0.0621,-0.0691,-0.0809,-0.0894,-0.0975,-0.1003,-0.0996,-0.1016,-0.0992,-0.1006,-0.1004,-0.1009,-0.0992,-0.0991,-0.099,-0.0989,0,0.011,0.0072,0.0005,-0.0075,-0.013,-0.0198,-0.027,-0.0298,-0.04,-0.045,-0.0528,-0.0581,-0.0687,-0.0768,-0.0859,-0.0917,-0.0971,-0.0981,-0.0988,-0.0968,-0.0936,-0.0955,-0.0986,-0.0982,-0.0983,-0.0984,-0.0984,-0.0984,0.0141,0.0104,0.0018,-0.0054,-0.0115,-0.018,-0.0224,-0.0293,-0.0358,-0.0451,-0.0498,-0.0575,-0.0662,-0.0789,-0.0845,-0.0907,-0.0925,-0.0934,-0.0937,-0.0939,-0.0933,-0.0922,-0.0924,-0.0924,-0.0924,-0.0924,-0.0925,0,0.0161,0.0102,0.0038,-0.0058,-0.0114,-0.0156,-0.0236,-0.0281,-0.0347,-0.0422,-0.0488,-0.0577,-0.0654,-0.0744,-0.0827,-0.086,-0.0887,-0.0879,-0.088,-0.0892,-0.0911,-0.0898,-0.0856,-0.0856,-0.0856,-0.0856,-0.0856,-0.0856,0.0165,0.0101,0.0053,-0.0042,-0.0102,-0.0176,-0.0218,-0.0278,-0.0338,-0.0433,-0.0497,-0.0554,-0.0636,-0.0725,-0.0798,-0.0822,-0.0851,-0.0836,-0.0868,-0.0885,-0.0891,-0.0897,-0.0885,-0.0841,-0.0841,-0.0845,-0.0845,-0.0845]}]]